Stn Id,Stn Name,CIMIS Region,Date,Jul,ETo (mm),qc,Precip (mm),qc,Sol Rad (W/sq.m),qc,Avg Vap Pres (kPa),qc,Max Air Temp (C),qc,Min Air Temp (C),qc,Avg Air Temp (C),qc,Max Rel Hum (%),qc,Min Rel Hum (%),qc,Avg Rel Hum (%),qc,Dew Point (C),qc,Avg Wind Speed (m/s),qc,Wind Run (km),qc,Avg Soil Temp (C),qc
39,Parlier,San Joaquin Valley,6/1/2016,153,7.66, ,0.00, ,332, ,1.3, ,39.0, ,18.0, ,28.5, ,82, ,12, ,34, ,11.3, ,1.8, ,152.0, ,27.1,Y
39,Parlier,San Joaquin Valley,6/2/2016,154,7.22, ,0.00, ,329, ,1.3, ,37.2, ,16.0, ,27.1, ,78, ,14, ,35, ,10.3, ,1.7, ,144.9, ,25.8, 
39,Parlier,San Joaquin Valley,6/3/2016,155,7.28, ,0.00, ,340, ,1.3, ,38.0, ,15.3, ,27.3, ,85, ,10, ,37, ,11.4, ,1.4, ,123.6, ,25.6, 
39,Parlier,San Joaquin Valley,6/4/2016,156,7.17, ,0.00, ,328, ,1.4, ,39.5, ,17.8, ,28.9, ,74, ,13, ,35, ,11.9, ,1.4, ,124.5, ,26.0, 
39,Parlier,San Joaquin Valley,6/5/2016,157,7.74, ,0.00, ,342, ,1.4, ,37.4, ,17.8, ,27.9, ,81, ,15, ,37, ,11.7, ,2.0, ,171.1, ,26.1, 
39,Parlier,San Joaquin Valley,6/6/2016,158,7.35, ,0.00, ,345, ,1.4, ,37.2, ,16.2, ,27.3, ,76, ,17, ,38, ,11.6, ,1.6, ,135.6, ,25.7, 
39,Parlier,San Joaquin Valley,6/7/2016,159,7.78, ,0.00, ,341, ,1.5, ,37.4, ,18.9, ,28.4, ,78, ,16, ,40, ,13.4, ,2.1, ,177.1, ,26.3, 
39,Parlier,San Joaquin Valley,6/8/2016,160,7.07, ,0.00, ,321, ,1.4, ,35.1, ,18.2, ,26.0, ,73, ,14, ,40, ,11.5, ,2.1, ,180.9, ,26.2, 
39,Parlier,San Joaquin Valley,6/9/2016,161,6.57, ,0.00, ,314, ,1.2, ,32.1, ,16.0, ,24.3, ,64, ,21, ,39, ,9.4, ,1.8, ,152.4, ,25.7, 
39,Parlier,San Joaquin Valley,6/10/2016,162,5.88, ,0.00, ,266, ,1.2, ,30.2, ,15.9, ,23.4, ,75, ,20, ,41, ,9.3, ,1.9, ,162.3, ,25.3, 
39,Parlier,San Joaquin Valley,6/11/2016,163,5.03, ,0.00, ,223, ,1.1, ,29.9, ,14.9, ,22.3, ,61, ,26, ,42, ,8.7, ,1.8, ,157.0, ,24.5, 
39,Parlier,San Joaquin Valley,6/12/2016,164,5.55, ,0.10, ,273, ,1.4, ,29.9, ,15.8, ,23.1, ,86, ,29, ,50, ,12.1, ,2.0, ,172.5, ,24.8, 
39,Parlier,San Joaquin Valley,6/13/2016,165,7.13, ,0.00, ,343, ,1.3, ,32.4, ,15.4, ,24.0, ,82, ,21, ,43, ,10.8, ,2.1, ,184.8, ,25.4, 
39,Parlier,San Joaquin Valley,6/14/2016,166,7.36, ,0.00, ,357, ,0.9, ,29.2, ,12.9, ,21.5, ,73, ,13, ,34, ,4.8, ,2.7, ,233.3, ,24.1, 
39,Parlier,San Joaquin Valley,6/15/2016,167,6.94, ,0.00, ,348, ,0.8, ,25.4, ,12.2, ,19.1, ,61, ,21, ,37, ,4.2, ,2.8, ,240.0, ,22.6, 
39,Parlier,San Joaquin Valley,6/16/2016,168,6.11, ,0.00, ,356, ,1.0, ,26.9, ,11.0, ,19.1, ,74, ,23, ,45, ,6.8, ,1.4, ,122.3, ,22.3, 
39,Parlier,San Joaquin Valley,6/17/2016,169,6.35, ,0.00, ,351, ,1.2, ,30.9, ,11.9, ,22.4, ,86, ,21, ,45, ,10.0, ,1.2, ,107.0, ,23.2, 
39,Parlier,San Joaquin Valley,6/18/2016,170,6.96, ,0.00, ,353, ,1.3, ,30.5, ,15.9, ,23.3, ,68, ,30, ,46, ,11.1, ,2.2, ,189.6, ,23.9, 
39,Parlier,San Joaquin Valley,6/19/2016,171,7.06, ,0.00, ,348, ,1.4, ,34.3, ,14.4, ,25.0, ,74, ,22, ,44, ,12.1, ,1.6, ,134.4, ,24.4, 
39,Parlier,San Joaquin Valley,6/20/2016,172,7.51, ,0.00, ,345, ,1.3, ,36.5, ,16.8, ,27.1, ,70, ,16, ,38, ,11.4, ,1.7, ,144.5, ,25.2, 
39,Parlier,San Joaquin Valley,6/21/2016,173,7.40, ,0.00, ,345, ,1.3, ,38.1, ,17.0, ,27.6, ,74, ,12, ,36, ,11.3, ,1.5, ,126.7, ,25.5, 
39,Parlier,San Joaquin Valley,6/22/2016,174,8.03, ,0.00, ,354, ,1.1, ,38.2, ,16.9, ,28.2, ,73, ,10, ,30, ,8.8, ,2.0, ,168.7, ,25.7, 
39,Parlier,San Joaquin Valley,6/23/2016,175,7.95, ,0.00, ,358, ,0.9, ,36.2, ,14.4, ,26.4, ,65, ,9, ,27, ,5.8, ,2.0, ,171.2, ,25.3, 
39,Parlier,San Joaquin Valley,6/24/2016,176,7.96, ,0.00, ,354, ,1.0, ,33.7, ,15.6, ,25.5, ,68, ,13, ,32, ,7.4, ,2.3, ,201.5, ,25.4, 
39,Parlier,San Joaquin Valley,6/25/2016,177,6.95, ,0.00, ,352, ,1.4, ,35.8, ,14.4, ,25.5, ,84, ,19, ,42, ,11.8, ,1.3, ,111.3, ,25.3, 
39,Parlier,San Joaquin Valley,6/26/2016,178,7.35, ,0.00, ,332, ,1.5, ,37.6, ,17.1, ,27.6, ,83, ,16, ,41, ,13.0, ,1.5, ,129.0, ,26.3, 
39,Parlier,San Joaquin Valley,6/27/2016,179,7.49, ,0.00, ,331, ,1.6, ,38.6, ,18.7, ,29.2, ,77, ,21, ,40, ,14.3, ,1.5, ,129.5, ,26.6, 
39,Parlier,San Joaquin Valley,6/28/2016,180,7.32, ,0.00, ,322, ,1.7, ,40.4, ,20.0, ,30.3, ,76, ,18, ,39, ,14.7, ,1.6, ,140.7, ,27.1, 
39,Parlier,San Joaquin Valley,6/29/2016,181,8.02, ,0.00, ,342, ,1.3, ,40.1, ,20.4, ,30.7, ,69, ,10, ,30, ,11.0, ,1.8, ,155.3, ,27.4, 
39,Parlier,San Joaquin Valley,6/30/2016,182,7.26, ,0.00, ,344, ,1.4, ,38.4, ,17.2, ,27.9, ,82, ,14, ,38, ,12.1, ,1.4, ,121.3, ,26.8, 
39,Parlier,San Joaquin Valley,7/1/2016,183,7.45, ,0.00, ,342, ,1.4, ,39.4, ,16.6, ,28.6, ,84, ,13, ,36, ,12.3, ,1.6, ,135.2, ,26.7, 
39,Parlier,San Joaquin Valley,7/2/2016,184,7.39, ,0.00, ,333, ,1.5, ,37.8, ,18.4, ,28.4, ,79, ,21, ,40, ,13.5, ,1.7, ,149.4, ,26.9, 
39,Parlier,San Joaquin Valley,7/3/2016,185,7.27, ,0.00, ,340, ,1.5, ,36.6, ,17.7, ,27.4, ,83, ,24, ,42, ,13.4, ,1.7, ,146.8, ,26.9, 
39,Parlier,San Joaquin Valley,7/4/2016,186,7.52, ,0.00, ,340, ,1.3, ,36.8, ,16.7, ,26.8, ,77, ,18, ,38, ,11.3, ,2.0, ,169.6, ,26.6, 
39,Parlier,San Joaquin Valley,7/5/2016,187,7.20, ,0.00, ,344, ,1.4, ,35.4, ,15.9, ,26.2, ,82, ,17, ,40, ,11.6, ,1.8, ,154.2, ,26.5, 
39,Parlier,San Joaquin Valley,7/6/2016,188,7.23, ,0.00, ,349, ,1.3, ,34.3, ,15.0, ,25.5, ,77, ,15, ,39, ,10.7, ,1.9, ,162.1, ,26.3, 
39,Parlier,San Joaquin Valley,7/7/2016,189,7.01, ,0.00, ,341, ,1.3, ,33.7, ,15.3, ,25.5, ,78, ,18, ,39, ,10.6, ,1.6, ,134.4, ,26.2, 
39,Parlier,San Joaquin Valley,7/8/2016,190,7.25, ,0.00, ,341, ,1.3, ,33.7, ,17.1, ,26.2, ,71, ,23, ,38, ,10.9, ,2.0, ,169.8, ,26.5, 
39,Parlier,San Joaquin Valley,7/9/2016,191,7.27, ,0.00, ,325, ,1.4, ,33.9, ,18.2, ,26.1, ,66, ,23, ,42, ,12.3, ,2.3, ,199.9, ,26.4, 
39,Parlier,San Joaquin Valley,7/10/2016,192,7.65, ,0.00, ,351, ,1.0,Y,30.5, ,16.7, ,23.5, ,56, ,19, ,34,Y,6.5,Y,2.8,Y,239.8,Y,25.2, 
39,Parlier,San Joaquin Valley,7/11/2016,193,6.74, ,0.00, ,350, ,1.2, ,32.4, ,12.4, ,23.3, ,80, ,18, ,41, ,9.4, ,1.3, ,111.4, ,24.6, 
39,Parlier,San Joaquin Valley,7/12/2016,194,7.26, ,0.00, ,347, ,1.2, ,34.5, ,14.4, ,25.4, ,82, ,15, ,36, ,9.2, ,1.6, ,137.7, ,24.9, 
39,Parlier,San Joaquin Valley,7/13/2016,195,7.09, ,0.00, ,345, ,1.3, ,35.5, ,14.3, ,25.8, ,83, ,18, ,40, ,11.3, ,1.5, ,129.5, ,25.0, 
39,Parlier,San Joaquin Valley,7/14/2016,196,7.28, ,0.00, ,339, ,1.4, ,38.2, ,17.0, ,27.7, ,82, ,15, ,39, ,12.5, ,1.5, ,131.1, ,25.5, 
39,Parlier,San Joaquin Valley,7/15/2016,197,7.50, ,0.00, ,333, ,1.4, ,38.7, ,17.1, ,28.5, ,82, ,16, ,36, ,12.1, ,1.7, ,147.7, ,25.8, 
39,Parlier,San Joaquin Valley,7/16/2016,198,7.11, ,0.00, ,323, ,1.3, ,36.7, ,16.8, ,27.4, ,81, ,18, ,37, ,11.4, ,1.7, ,145.7, ,25.9, 
39,Parlier,San Joaquin Valley,7/17/2016,199,7.17, ,0.00, ,344, ,1.3, ,35.9, ,16.1, ,26.5, ,77, ,17, ,37, ,10.5, ,1.6, ,140.8, ,25.7, 
39,Parlier,San Joaquin Valley,7/18/2016,200,7.21, ,0.00, ,345, ,1.1,Y,33.5, ,15.9, ,25.6, ,65, ,18, ,35,Y,9.0,Y,1.8, ,157.9, ,25.4, 
39,Parlier,San Joaquin Valley,7/19/2016,201,6.83, ,0.20, ,341, ,1.4, ,34.2, ,15.3, ,25.1, ,79, ,23, ,43, ,11.6, ,1.6, ,142.3, ,25.3, 
39,Parlier,San Joaquin Valley,7/20/2016,202,6.90, ,0.00, ,336, ,1.3, ,35.4, ,15.2, ,25.8, ,69, ,21, ,39, ,10.7, ,1.5, ,127.2, ,25.6, 
39,Parlier,San Joaquin Valley,7/21/2016,203,7.22, ,0.00, ,328, ,1.3, ,37.0, ,15.7, ,26.7, ,78, ,17, ,37, ,11.0, ,1.8, ,151.8, ,26.2, 
39,Parlier,San Joaquin Valley,7/22/2016,204,7.18, ,0.00, ,338, ,1.2,Y,36.2, ,15.8, ,25.9, ,68, ,12, ,35,Y,9.4,Y,1.7, ,144.2, ,26.5, 
39,Parlier,San Joaquin Valley,7/23/2016,205,6.93, ,0.00, ,340, ,1.4, ,36.6, ,14.6, ,26.3, ,79, ,20, ,41, ,11.9, ,1.4, ,117.8, ,26.1, 
39,Parlier,San Joaquin Valley,7/24/2016,206,7.09, ,0.00, ,335, ,1.5, ,40.0, ,17.5, ,28.7, ,79, ,11, ,37, ,12.7, ,1.3, ,110.9, ,26.7, 
39,Parlier,San Joaquin Valley,7/25/2016,207,7.21, ,0.00, ,330, ,1.4, ,39.6, ,17.3, ,28.7, ,79, ,14, ,36, ,12.3, ,1.5, ,126.1, ,27.1, 
39,Parlier,San Joaquin Valley,7/26/2016,208,7.14, ,0.00, ,288, ,1.6, ,39.3, ,23.5,Y,33.1,Y,79, ,20, ,32,Y,14.3,Y,1.7, ,143.2, ,28.6, 
39,Parlier,San Joaquin Valley,7/27/2016,209,7.22, ,0.00, ,312, ,1.7, ,41.1,Y,19.4, ,30.1, ,84, ,16, ,40, ,15.2, ,1.5, ,126.7, ,27.7, 
39,Parlier,San Joaquin Valley,7/28/2016,210,7.06, ,0.00, ,413,R,1.5, ,40.4, ,23.3,Y,33.7,R,78, ,13, ,,R,,I,1.7, ,143.6, ,28.6, 
39,Parlier,San Joaquin Valley,7/29/2016,211,7.13, ,0.00, ,307, ,1.7, ,40.9,Y,19.6, ,30.2, ,83, ,16, ,40, ,15.2, ,1.4, ,122.8, ,28.0, 
39,Parlier,San Joaquin Valley,7/30/2016,212,7.03, ,0.00, ,298, ,1.7, ,40.6, ,20.5, ,30.4, ,78, ,17, ,39, ,14.8, ,1.6, ,139.9, ,28.2, 
39,Parlier,San Joaquin Valley,7/31/2016,213,7.00, ,0.00, ,315, ,1.5, ,38.7, ,19.2, ,29.0, ,80, ,14, ,37, ,13.0, ,1.4, ,124.8, ,28.2, 
39,Parlier,San Joaquin Valley,8/1/2016,214,6.88, ,0.00, ,312, ,1.6, ,37.4, ,18.4, ,28.0, ,83, ,20, ,41, ,13.7, ,1.5, ,133.2, ,28.1, 
39,Parlier,San Joaquin Valley,8/2/2016,215,6.84, ,0.00, ,311, ,1.6, ,37.1, ,17.6, ,27.3, ,84, ,19, ,43, ,13.7, ,1.6, ,135.0, ,27.9, 
39,Parlier,San Joaquin Valley,8/3/2016,216,6.87, ,0.00, ,314, ,1.4, ,37.5, ,16.5, ,27.3, ,84, ,15, ,39, ,12.1, ,1.5, ,125.8, ,27.6, 
39,Parlier,San Joaquin Valley,8/4/2016,217,6.85, ,0.00, ,318, ,1.4, ,36.3, ,16.8, ,26.6, ,84, ,15, ,40, ,11.7, ,1.5, ,133.7, ,27.4, 
39,Parlier,San Joaquin Valley,8/5/2016,218,6.52, ,0.00, ,319, ,1.4, ,33.7, ,15.1, ,24.8, ,84, ,22, ,44, ,11.7, ,1.7, ,148.7, ,26.9, 
39,Parlier,San Joaquin Valley,8/6/2016,219,6.49, ,0.00, ,324, ,1.4, ,34.8, ,14.5, ,24.9, ,87, ,17, ,43, ,11.5, ,1.4, ,123.4, ,26.0, 
39,Parlier,San Joaquin Valley,8/7/2016,220,6.78, ,0.00, ,326, ,1.2, ,34.5, ,15.7, ,25.3, ,74, ,16, ,36, ,9.3, ,1.7, ,143.1, ,25.8, 
39,Parlier,San Joaquin Valley,8/8/2016,221,6.44, ,0.00, ,325, ,1.2, ,36.0, ,13.4, ,24.7, ,82, ,9, ,37, ,9.2, ,1.3, ,114.0, ,25.5, 
39,Parlier,San Joaquin Valley,8/9/2016,222,6.31, ,0.00, ,312, ,1.3, ,34.8, ,14.2, ,24.7, ,84, ,19, ,42, ,11.0, ,1.3, ,111.6, ,25.5, 
39,Parlier,San Joaquin Valley,8/10/2016,223,6.15, ,0.00, ,305, ,1.4, ,34.6, ,14.9, ,24.6, ,85, ,21, ,46, ,12.2, ,1.3, ,113.4, ,25.6, 
39,Parlier,San Joaquin Valley,8/11/2016,224,6.60, ,0.00, ,311, ,1.3, ,36.4, ,15.2, ,25.7, ,86, ,17, ,41, ,11.4, ,1.5, ,132.8, ,25.6, 
39,Parlier,San Joaquin Valley,8/12/2016,225,6.75, ,0.00, ,305, ,1.4, ,37.4, ,15.5, ,27.0, ,82, ,16, ,40, ,12.0, ,1.6, ,139.5, ,25.7, 
39,Parlier,San Joaquin Valley,8/13/2016,226,6.76, ,0.00, ,302, ,1.5, ,38.2, ,17.1, ,28.0, ,83, ,19, ,40, ,13.0, ,1.5, ,133.4, ,26.1, 
39,Parlier,San Joaquin Valley,8/14/2016,227,6.76, ,0.00, ,306, ,1.5, ,40.1, ,18.0, ,29.0, ,77, ,14, ,38, ,13.1, ,1.5, ,125.7, ,26.5, 
39,Parlier,San Joaquin Valley,8/15/2016,228,6.81, ,0.00, ,307, ,1.3, ,37.8, ,17.3, ,28.1, ,76, ,15, ,34, ,10.9, ,1.6, ,140.6, ,26.5, 
39,Parlier,San Joaquin Valley,8/16/2016,229,6.42, ,0.00, ,303, ,1.5, ,37.2, ,15.9, ,26.4, ,85, ,15, ,42, ,12.5, ,1.4, ,121.1, ,26.3, 
39,Parlier,San Joaquin Valley,8/17/2016,230,6.14, ,0.00, ,293, ,1.5, ,38.7, ,16.9, ,27.1, ,83, ,13, ,43, ,13.5, ,1.1, ,98.5, ,26.3, 
39,Parlier,San Joaquin Valley,8/18/2016,231,6.16, ,0.00, ,277, ,1.4, ,37.8, ,17.2, ,27.4, ,80, ,16, ,39, ,12.3, ,1.2, ,102.1, ,26.4, 
39,Parlier,San Joaquin Valley,8/19/2016,232,5.74, ,0.00, ,274, ,1.6, ,37.6, ,17.4, ,26.8, ,87, ,15, ,45, ,14.0, ,1.2, ,103.9, ,26.4, 
39,Parlier,San Joaquin Valley,8/20/2016,233,6.02, ,0.00, ,277, ,1.5, ,37.0, ,17.2, ,26.9, ,85, ,18, ,43, ,13.4, ,1.3, ,114.4, ,26.7, 
39,Parlier,San Joaquin Valley,8/21/2016,234,6.25, ,0.00, ,275, ,1.4, ,36.4, ,17.1, ,26.9, ,80, ,17, ,39, ,11.6, ,1.5, ,132.5, ,26.5, 
39,Parlier,San Joaquin Valley,8/22/2016,235,5.93, ,0.00, ,275, ,1.3, ,34.4, ,17.1, ,25.9, ,65, ,21, ,40, ,11.2, ,1.5, ,127.4, ,26.0, 
39,Parlier,San Joaquin Valley,8/23/2016,236,6.23, ,0.00, ,276, ,1.4, ,35.5, ,16.3, ,26.1, ,85, ,18, ,42, ,12.0, ,1.6, ,140.4, ,25.9, 
39,Parlier,San Joaquin Valley,8/24/2016,237,5.97, ,0.00, ,286, ,1.3, ,35.6, ,15.0, ,24.7, ,85, ,11, ,40, ,10.3, ,1.2, ,101.8, ,25.4, 
39,Parlier,San Joaquin Valley,8/25/2016,238,5.76, ,0.00, ,282, ,1.3, ,34.6, ,13.8, ,24.2, ,84, ,15, ,41, ,10.3, ,1.1, ,95.3, ,25.0, 
39,Parlier,San Joaquin Valley,8/26/2016,239,5.52,R,0.00, ,271, ,1.4, ,32.6, ,13.9, ,23.5, ,87, ,22, ,47, ,11.4, ,1.3, ,116.6, ,24.8, 
39,Parlier,San Joaquin Valley,8/27/2016,240,5.30, ,0.00, ,274, ,1.5, ,31.5, ,13.5, ,22.8, ,89, ,28, ,53, ,12.7, ,1.2, ,103.4, ,24.6, 
39,Parlier,San Joaquin Valley,8/28/2016,241,5.51, ,0.00, ,273, ,1.5, ,33.4, ,15.7, ,24.5, ,85, ,27, ,50, ,13.3, ,1.4, ,119.1, ,24.7, 
39,Parlier,San Joaquin Valley,8/29/2016,242,5.52, ,0.00, ,270, ,1.5, ,35.0, ,15.6, ,25.0, ,87, ,23, ,49, ,13.5, ,1.2, ,106.5, ,24.9, 
39,Parlier,San Joaquin Valley,8/30/2016,243,5.63, ,0.00, ,268, ,1.4, ,35.2, ,14.9, ,24.8, ,83, ,20, ,44, ,11.6, ,1.3, ,109.3, ,24.8, 
39,Parlier,San Joaquin Valley,8/31/2016,244,6.03, ,0.00, ,379,R,1.2, ,34.9, ,20.9, ,29.3, ,81, ,21, ,30, ,9.9, ,2.1, ,183.0, ,24.9, 
39,Parlier,San Joaquin Valley,9/1/2016,245,5.84, ,0.00, ,281, ,1.3, ,34.4, ,14.2, ,24.7, ,81, ,21, ,41, ,10.6, ,1.5, ,133.1, ,24.8, 
39,Parlier,San Joaquin Valley,9/2/2016,246,5.74, ,0.00, ,281, ,1.3, ,34.2, ,14.1, ,24.3, ,81, ,18, ,43, ,10.7, ,1.6, ,134.5, ,25.0, 
39,Parlier,San Joaquin Valley,9/3/2016,247,5.76, ,0.00, ,269, ,1.2, ,31.4, ,15.4, ,23.3, ,81, ,10, ,41, ,9.4, ,1.9, ,165.8, ,25.0, 
39,Parlier,San Joaquin Valley,9/4/2016,248,5.09, ,0.00, ,288, ,1.1, ,26.9, ,11.2, ,19.3, ,87, ,21, ,47, ,7.8, ,1.4, ,124.8, ,22.7, 
39,Parlier,San Joaquin Valley,9/5/2016,249,4.91,R,0.00, ,276, ,1.2, ,29.3, ,10.1, ,19.8, ,89, ,25, ,52, ,9.6, ,1.1, ,97.7, ,22.4, 
39,Parlier,San Joaquin Valley,9/6/2016,250,5.30, ,0.00, ,271, ,1.2, ,32.6, ,13.2, ,22.2, ,83, ,20, ,46, ,9.9, ,1.3, ,109.9, ,22.7, 
39,Parlier,San Joaquin Valley,9/7/2016,251,5.26, ,0.00, ,272, ,1.3, ,35.0, ,13.2, ,23.7, ,82, ,15, ,43, ,10.5, ,1.1, ,94.1, ,23.2, 
39,Parlier,San Joaquin Valley,9/8/2016,252,5.46, ,0.00, ,262, ,1.2, ,35.2, ,14.1, ,24.7, ,80, ,17, ,40, ,10.2, ,1.3, ,115.7, ,23.5, 
39,Parlier,San Joaquin Valley,9/9/2016,253,4.96, ,0.00, ,255, ,1.5, ,34.6, ,13.7, ,23.7, ,85, ,22, ,51, ,12.9, ,1.2, ,102.9, ,23.7, 
39,Parlier,San Joaquin Valley,9/10/2016,254,4.88, ,0.00, ,248, ,1.7, ,35.4, ,15.9, ,25.0, ,87, ,26, ,53, ,14.9, ,1.2, ,102.6, ,24.3, 
39,Parlier,San Joaquin Valley,9/11/2016,255,5.05, ,0.00, ,248, ,1.4, ,34.6, ,16.4, ,25.1, ,86, ,18, ,44, ,12.1, ,1.3, ,109.2, ,24.6, 
39,Parlier,San Joaquin Valley,9/12/2016,256,5.37, ,0.00, ,253, ,1.1, ,31.9, ,13.3, ,22.4, ,87, ,18, ,42, ,9.0, ,1.9, ,162.3, ,24.0, 
39,Parlier,San Joaquin Valley,9/13/2016,257,4.08, ,0.00, ,251, ,1.1, ,23.0,Y,9.5, ,16.5,Y,86, ,31, ,57,Y,7.9,Y,1.3, ,111.0, ,22.7, 
39,Parlier,San Joaquin Valley,9/14/2016,258,4.45, ,0.00, ,254, ,1.1, ,27.5, ,9.4, ,18.0, ,84, ,26, ,52, ,7.9, ,1.1, ,96.4, ,22.1, 
39,Parlier,San Joaquin Valley,9/15/2016,259,4.66, ,0.00, ,251, ,1.2, ,30.1, ,10.6, ,19.8, ,86, ,21, ,50, ,9.1, ,1.2, ,104.9, ,22.2, 
39,Parlier,San Joaquin Valley,9/16/2016,260,4.83, ,0.00, ,247, ,1.2, ,31.9, ,11.9, ,21.2, ,86, ,20, ,48, ,9.8, ,1.3, ,112.1, ,22.8, 
39,Parlier,San Joaquin Valley,9/17/2016,261,4.60, ,0.00, ,244, ,1.4, ,34.0, ,13.1, ,22.8, ,84, ,21, ,49, ,11.4, ,1.1, ,94.5, ,23.2, 
39,Parlier,San Joaquin Valley,9/18/2016,262,4.86, ,0.00, ,246, ,1.3, ,36.0, ,14.5, ,24.7, ,82, ,17, ,43, ,11.4, ,1.0, ,85.2, ,23.7, 
39,Parlier,San Joaquin Valley,9/19/2016,263,4.82, ,0.00, ,244, ,1.3, ,38.6, ,14.5, ,25.9, ,78, ,13, ,40, ,11.2, ,1.0, ,83.6, ,23.8, 
39,Parlier,San Joaquin Valley,9/20/2016,264,5.09, ,0.00, ,224, ,1.3, ,34.6, ,18.1, ,25.9, ,57, ,22, ,37, ,10.3, ,1.6, ,134.2, ,24.0, 
39,Parlier,San Joaquin Valley,9/21/2016,265,4.19, ,0.00, ,163, ,1.0, ,30.1, ,15.1, ,22.9, ,82, ,12, ,35, ,6.7, ,2.1, ,177.3, ,23.4, 
39,Parlier,San Joaquin Valley,9/22/2016,266,4.58, ,0.00, ,246, ,0.8,Y,23.3, ,8.1, ,16.6, ,77, ,26, ,44,Y,4.5,Y,2.1, ,179.0, ,21.4, 
39,Parlier,San Joaquin Valley,9/23/2016,267,3.75, ,0.00, ,223, ,1.0, ,25.1, ,7.6, ,16.4, ,86, ,27, ,55, ,7.3, ,1.1, ,95.7, ,20.7, 
39,Parlier,San Joaquin Valley,9/24/2016,268,4.13, ,0.00, ,238, ,1.1, ,29.0, ,9.3, ,18.8, ,82, ,22, ,49, ,7.8, ,1.0, ,83.9, ,20.8, 
39,Parlier,San Joaquin Valley,9/25/2016,269,4.27, ,0.00, ,235, ,1.2, ,35.0, ,11.0, ,22.1, ,83, ,17, ,45, ,9.6, ,0.8, ,71.0, ,21.5, 
39,Parlier,San Joaquin Valley,9/26/2016,270,4.39, ,0.00, ,229, ,1.2, ,36.0, ,12.3, ,23.7, ,80, ,15, ,42, ,9.9, ,0.8, ,70.9, ,22.2, 
39,Parlier,San Joaquin Valley,9/27/2016,271,4.43, ,0.00, ,226, ,1.3, ,35.9, ,13.5, ,23.7, ,81, ,14, ,44, ,10.6, ,1.0, ,89.9, ,22.4, 
39,Parlier,San Joaquin Valley,9/28/2016,272,4.40, ,0.00, ,210, ,1.2, ,36.8, ,13.5, ,24.8, ,78, ,14, ,37, ,9.0, ,1.0, ,88.1, ,22.7, 
39,Parlier,San Joaquin Valley,9/29/2016,273,4.48, ,0.00, ,215, ,1.2, ,34.6, ,16.5, ,25.0, ,66, ,15, ,37, ,9.2, ,1.2, ,103.1, ,23.0, 
39,Parlier,San Joaquin Valley,9/30/2016,274,4.41, ,0.00, ,215, ,1.1, ,32.2, ,12.8, ,21.7, ,82, ,21, ,44, ,8.9, ,1.7, ,147.3, ,23.4, 
39,Parlier,San Joaquin Valley,10/1/2016,275,3.88, ,0.00, ,221, ,1.0, ,24.7, ,10.5, ,17.1, ,77, ,26, ,50, ,6.7, ,1.5, ,132.7, ,21.7, 
39,Parlier,San Joaquin Valley,10/2/2016,276,4.54, ,0.00, ,223, ,0.9, ,22.9, ,8.0, ,16.4, ,79, ,24, ,46, ,4.8, ,2.6,Y,221.8,Y,19.6, 
39,Parlier,San Joaquin Valley,10/3/2016,277,3.37, ,0.00, ,183, ,0.9, ,21.3, ,8.7, ,15.5, ,86, ,24, ,51, ,5.4, ,1.9, ,165.5, ,18.6, 
39,Parlier,San Joaquin Valley,10/4/2016,278,3.81, ,0.00, ,219, ,0.9, ,23.3, ,7.2, ,15.6, ,84, ,31, ,53, ,6.2, ,1.6, ,136.9, ,18.4, 
39,Parlier,San Joaquin Valley,10/5/2016,279,3.40,A,0.00,P,219,P,1.0,P,24.0,P,7.6,P,15.6,P,,M,,M,,M,,M,1.3,P,,M,18.5,P
39,Parlier,San Joaquin Valley,10/6/2016,280,3.68, ,0.00, ,215, ,0.9, ,25.9, ,5.9, ,15.2, ,88, ,24, ,52, ,5.5, ,1.2, ,107.8, ,18.3, 
39,Parlier,San Joaquin Valley,10/7/2016,281,3.13,R,0.00, ,186, ,1.0, ,27.9, ,7.5, ,16.3, ,85, ,24, ,54, ,7.1, ,0.8, ,70.5, ,18.5, 
                                                                                                                                                                                                                                                                                                                                                                                                                                                                                                                                                                                                                                                                                                                                                                                                                                                                                                                                                                                                                                                                